AirNav   Textron
 
 673 users online  

6VA9 Bush Airport
Woolwine, Virginia, USA

GOING TO WOOLWINE?


FAA INFORMATION EFFECTIVE 12 OCTOBER 2017

Location

FAA Identifier: 6VA9
Lat/Long: 36-50-33.4840N / 080-14-18.1760W
36-50.558067N / 080-14.302933W
36.8426344 / -80.2383822
(estimated)
Elevation: 1500 ft. / 457 m (estimated)
Variation: 06W (1985)
From city: 4 miles NE of WOOLWINE, VA
Time zone: UTC -4 (UTC -5 during Standard Time)
Zip code: 24185

Airport Operations

Airport use: Private use. Permission required prior to landing
Activation date: 04/1980
Control tower: no
ARTCC: WASHINGTON CENTER
FSS: LEESBURG FLIGHT SERVICE STATION
Attendance: UNATNDD
Wind indicator: yes
Segmented circle: no

Airport Communications

WX AWOS-3 at MTV (17 nm SE): 118.45 (276-957-3784)

Nearby radio navigation aids

VOR radial/distance  VOR name  Freq  Var
PSKr129/27.1PULASKI VORTAC116.8006W
ROAr199/31.1ROANOKE VOR/DME109.4004W
ODRr211/(31.4)WOODRUM VOR114.9008W

 
NDB name  Hdg/Dist  Freq  Var  ID
TECH166/23.336806WTEC - . -.-.
VINTON226/27.627708WVIT ...- .. -
SLAMMER327/35.942307WSIF ... .. ..-.
ZEPHYR044/39.732608WZEF --.. . ..-.

Airport Services

Runway Information

Runway 15/33

Dimensions: 2800 x 100 ft. / 853 x 30 m
Surface: turf
Operational restrictions: RWY 15 NOT USABLE FOR LANDING.
RUNWAY 15  RUNWAY 33
Traffic pattern: leftleft
Obstructions: hilltrees, 50 ft. from runway

Airport Ownership and Management from official FAA records

Ownership: Privately-owned
Owner: LARRY E. DONLEY
4461 WOODS GAP RD
WOOLWINE, VA 24185
Phone 276-692-6789
Manager: LARRY E. DONLEY
4461 WOODS GAP RD
WOOLWINE, VA 24185
Phone 276-930-4311

Instrument Procedures

There are no published instrument procedures at 6VA9.

Some nearby airports with instrument procedures:

KMTV - Blue Ridge Airport (17 nm SE)
KBCB - Virginia Tech/Montgomery Executive Airport (23 nm N)
KMWK - Mount Airy/Surry County Airport (28 nm SW)
KPSK - New River Valley Airport (28 nm NW)
KHLX - Twin County Airport (28 nm W)
 
Loc | Ops | Rwys | IFR | FBO | Links
Com | Nav | Svcs | Stats | Notes


 
Area around 6VA9 (Bush Airport)
 
Road maps at: MapQuest Bing Google
 
Aerial photo
No photo
 
Sectional chart

 
Airport distance calculator
Flying to Bush Airport? Find the distance to fly.

From to 6VA9

Sunrise and sunset
Times for 21-Oct-2017
 Local
(UTC-4)
 Zulu
(UTC)
Morning civil twilight07:0911:09
Sunrise07:3511:35
Sunset18:3622:36
Evening civil twilight19:0223:02

Current date and time
Zulu (UTC)  22-Oct-2017 03:28:24
Local (UTC-4)  21-Oct-2017 23:28:24
 
METAR
KMTV 
17nm SE 
220315Z AUTO 00000KT 10SM CLR 11/10 A3038 RMK AO2 T01080103
KBCB 
24nm N 
220315Z AUTO 11003KT 10SM CLR 13/10 A3041 RMK AO2 T01320103
KPSK 
26nm NW 
220315Z AUTO 00000KT 10SM CLR 13/11 A3038 RMK AO2 T01270110
KMWK 
27nm SW 
220305Z AUTO 00000KT 10SM CLR 15/11 A3037 RMK AO2 T01450113
KHLX 
28nm W 
220315Z AUTO 00000KT 10SM CLR 15/08 A3038 RMK AO2 T01460075
KSIF 
31nm SE 
220305Z AUTO 00000KT 10SM CLR 11/09 A3035 RMK AO2 T01080091
KROA 
31nm NE 
220254Z 00000KT 10SM CLR 16/12 A3037 RMK AO2 SLP278 T01560122 53001
TAF
KBCB 
24nm N 
211723Z 2118/2218 16005KT P6SM FEW250 FM220800 00000KT 3SM BR FEW120 FM221000 00000KT 1SM BR SCT030 FM221200 00000KT P6SM SCT120
NOTAMs
Click for the latest NOTAMs
NOTAMs are issued by the DoD/FAA and will open in a separate window not controlled by AirNav.

 

 
 

Would you like to see your business listed on this page?

 If your business provides an interesting product or service to pilots, flight crews, aircraft, or users of the Bush Airport, you should consider listing it here.  To start the listing process, click on the button below
 
Add a business
 

Other Pages about Bush Airport

Update a link
 
Copyright © AirNav, LLC. All rights reserved. Privacy Policy  Contact